{"data":{"norad_id":67551,"intl_designator":"2026-014V","name":"STARLINK-36566","alt_names":[],"object_type":"PAYLOAD","status":"ACTIVE","operator":null,"country":"US","launch_date":"2026-01-22","launch_site_code":"AFWTR","launch_vehicle":null,"mission":null,"orbit_class":"UNKNOWN","rcs_meters":null,"size_class":null,"mass_kg":null,"dimensions":null,"purposes":["comms"],"wikipedia_slug":null,"has_3d_model":false,"image_url":null,"decayed_at":null,"tle_current":{"epoch":"2026-05-25T02:55:55.704000Z","epoch_age_seconds":65317,"freshness":"FRESH","line1":"1 67551U 26014V   26145.12217250  .00026893  00000+0  83213-3 0  9992","line2":"2 67551  97.2873  32.1181 0001183 103.3240 256.8135 15.33454714 20485","mean_motion":15.33454714,"eccentricity":0.0001183,"inclination_deg":97.2873,"raan_deg":32.1181,"arg_perigee_deg":103.324,"mean_anomaly_deg":256.8135,"bstar":0.00083213,"rev_number":2048,"period_min":93.905609787704,"perigee_km":464.70466865553,"apogee_km":466.32387654663,"semimajor_km":6843.6512726011,"source":"CELESTRAK","updated_at":"2026-05-25T13:38:21.610977Z"}}}